Regional Weather Roundup
Issued by NWS

Home | Current Version | Previous Version | Text Only | Print | Product List | Glossary Off
Versions: 1 2 3 4 5 6 7 8 9 10 11 12 13 14 15 16 17 18 19 20 21 22 23 24 25 26 27 28 29 30 31 32 33 34 35 36 37 38 39 40 41 42 43 44 45 46 47 48 49 50

000
ASUS45 KBOU 232207
RWRCO

WEATHER ROUNDUP FOR COLORADO
NATIONAL WEATHER SERVICE DENVER/BOULDER CO
300 PM MST SUN NOV 23 2014

NOTE: "FAIR" INDICATES FEW OR NO CLOUDS BELOW 12000 FEET WITH NO
SIGNIFICANT WEATHER AND/OR OBSTRUCTIONS TO VISIBILITY.

COZ001>005-013-030-031-232300-
...NORTHWEST COLORADO...

CITY           SKY/WX    TMP DP  RH WIND       PRES   REMARKS
CRAIG          PTSUNNY   29  16  58 NW16      29.98R WCI  17
HAYDEN         PTSUNNY   28  10  47 NW22G33   29.94R WCI  15
MEEKER         FLURRIES  31  20  63 W9        29.99R WCI  23
MOUNT WERNER   NOT AVBL
STEAMBOAT SPGS CLOUDY    25  18  76 W18G28    29.92S WCI  11
WALDEN         CLOUDY    19  12  73 W18       29.85R WCI   4
$$

COZ006>008-011-232300-
...WEST CENTRAL VALLEYS...

CITY           SKY/WX    TMP DP  RH WIND       PRES   REMARKS
GRAND JUNCTION MOSUNNY   41  16  36 N15       30.00S
MONTROSE       PTSUNNY   36  20  52 NW22G30   30.00S
EAGLE          PTSUNNY   30  18  59 W18G24    29.96R WCI  18
RIFLE          PTSUNNY   32  21  64 W17G24    30.00R WCI  21
DELTA          CLOUDY    42  25  51 W10G20    30.00R
NUCLA          PTSUNNY   37  16  41 NW16      30.04R
$$

COZ017>023-064>068-232300-
...SOUTHWEST COLORADO...

CITY           SKY/WX    TMP DP  RH WIND       PRES   REMARKS
DURANGO        MOSUNNY   39   8  27 NW29G37   29.86R
CORTEZ         PTSUNNY   41  12  30 NW26G36   29.98R
PAGOSA SPRINGS MOSUNNY   38  -1  19 NW13G25   29.81R
TELLURIDE      LGT SNOW  22  14  69 NW7G21    29.96R WCI  14
WOLF CREEK PAS MOSUNNY   12   0  57 MISG      29.79R HAZE
$$

COZ009-010-012-014-032>034-037-058>063-232300-
...CENTRAL COLORADO...

CITY           SKY/WX    TMP DP  RH WIND       PRES   REMARKS
ASPEN          CLOUDY    24  16  71 NW16G28   29.91R WCI  11
BUENA VISTA    PTSUNNY   30  13  49 NW21G28   29.80R WCI  17
COPPER MTN     CLOUDY    12   5  73 W35G48    29.75S WCI -10
BERTHOUD PASS  HVY SNOW   3   0  85 MISG      29.68R VSB<1/4
COTTONWOOD PAS PTSUNNY   27   5  39 W18G30    29.78R WCI  13
GUNNISON       CLOUDY    25  12  58 W5        29.90R WCI  19
KREMMLING      CLOUDY    30  19  64 NW6       29.90R WCI  24
LEADVILLE      SNOW      14  11  87 NW10G20   29.81R VSB 1/2 WCI   1
MONARCH PASS   CLOUDY    12   9  85 MISG      29.87R
SALIDA         MOSUNNY   35   2  25 W14G21    29.86R WCI  25
SUNLIGHT       CLOUDY   N/A N/A N/A W7        29.91R
WILKERSON PASS PTSUNNY   16   7  67 NW12G30   29.77R WCI   3
$$

COZ069>075-232300-
...SAN LUIS VALLEY/SANGRE DE CRISTO MOUNTAINS...

CITY           SKY/WX    TMP DP  RH WIND       PRES   REMARKS
ALAMOSA        MOSUNNY   36   3  25 NW22G32   29.77R
LA VETA PASS   LGT SNOW  19  16  86 NW3       29.76S
SAGUACHE       PTSUNNY   30  18  59 NW23G30   29.80R WCI  17
$$

COZ035-036-038>040-232300-
...NORTHERN COLORADO FRONT RANGE...

CITY           SKY/WX    TMP DP  RH WIND       PRES   REMARKS
DENVER INTL AP CLOUDY    37  18  46 N22G33    29.79R
DMNS CITY PARK   N/A     34  24  66 W7G17     29.82R WCI  28
AURORA         LGT SNOW  33  23  66 N18       29.81R WCI  22
FRONT RANGE AP NOT AVBL
ERIE MUNI ARPT CLOUDY    38  19  47 N12       29.81R
BOULDER MUN AP PTSUNNY   39  19  45 W9        29.79R
CENTENNIAL     CLOUDY    35  22  58 NE13G23   29.79R WCI  26
BROOMFIELD     PTSUNNY   37  21  52 SW5       29.80R
FORT COLLINS   PTSUNNY   37  18  44 NW22      29.82S
LONGMONT       PTSUNNY   40  19  43 N20G26    29.81R
$$

COZ041-046-047-076>085-087-088-232300-
...PIKES PEAK/PALMER DIVIDE AND SOUTHERN FOOTHILLS...

CITY           SKY/WX    TMP DP  RH WIND       PRES   REMARKS
COLO. SPRINGS  CLOUDY    33  24  69 W9        29.79R WCI  25
A. F. ACADEMY  LGT SNOW  32  18  55 NW7G24    29.78R WCI  26
ELLICOTT       NOT AVBL
FALCON         NOT AVBL
FORT CARSON    CLOUDY    33  25  73 W3        29.79R
LIMON          PTSUNNY   37  13  37 N20       29.76R
MONUMENT HILL  CLOUDY    30  16  55 N17       29.77R WCI  18
TRINIDAD       CLOUDY    32  26  78 W9        29.82R WCI  24
$$

COZ042>045-048>051-090-091-232300-
...NORTHEAST COLORADO...

CITY           SKY/WX    TMP DP  RH WIND       PRES   REMARKS
GREELEY ARPT   PTSUNNY   41  12  30 NW32      29.81R
AKRON          MOSUNNY   42  11  28 N29G37    29.76R
BURLINGTON     SUNNY     44  11  26 N29G37    29.73R
WRAY           MOSUNNY   47  11  23 NW26G38   29.73R
STERLING       MOSUNNY   46  18  31 N23G32    29.75S
HOLYOKE        MOSUNNY   46  10  23 N30G39    29.72S
FORT MORGAN    PTSUNNY   43  11  27 N20       29.78R
$$

COZ086-089-092>099-232300-
...SOUTHEAST COLORADO...

CITY           SKY/WX    TMP DP  RH WIND       PRES   REMARKS
PUEBLO         CLOUDY    40  22  48 NW7       29.81R
LA JUNTA       PTSUNNY   46  17  31 N12       29.77S
LAMAR          MOSUNNY   47  13  25 N22G29    29.73R
SPRINGFIELD      N/A     43  11  27 N30       29.73R
$$



USA.gov is the U.S. government's official web portal to all federal, state and local government web resources and services.